[[{"header":{"parameterUnit":"m.s-1","parameterCategory":1,"la1":30.2992,"la2":30.254,"lo1":-89.0895,"lo2":-89.0443,"dy":0.0025,"dx":0.0025,"nx":19,"ny":19,"refTime":"2026-03-25T21:00:00:Z","depth":0,"parameterNumber":2,"parameterNumberName":"U-component_of_WINDS"},"data":[0,0,0,2.3445,2.3445,2.3485,2.3485,2.3516,2.3516,0,0,0,0,0,0,0,0,0,0,0,2.3421,2.3421,2.3445,2.3446,2.3484,2.3485,2.3516,2.3516,0,0,0,0,0,0,0,0,0,0,0,2.3421,2.3421,2.3421,2.3446,2.3484,2.3485,2.3516,2.3493,0,0,0,0,0,0,0,0,0,0,2.3459,2.3424,2.3421,2.3421,2.3446,2.3484,2.3485,2.3493,2.3495,2.349,0,2.3482,0,2.35,2.3517,2.3517,0,0,0,2.3454,2.3422,2.3444,2.3421,2.3446,2.3484,2.3469,2.3494,2.3496,2.3493,2.3483,2.3485,2.35,2.3517,2.3517,2.3463,2.3462,0,0,2.3452,2.3421,2.3443,2.3445,2.3438,2.3468,2.347,2.3496,2.3483,2.3483,2.3486,2.3501,2.3517,2.3517,2.3464,2.3463,0,0,0,2.344,2.3419,2.3441,2.3443,2.3452,2.3469,2.3472,2.3482,2.3491,2.3486,2.3501,2.3517,2.3517,2.3464,2.3463,2.34,0,0,0,2.3439,2.3412,2.344,2.3421,2.3451,2.3467,2.3457,2.349,2.3493,2.3501,2.3517,2.3518,2.3465,2.3464,2.3404,2.3375,0,0,0,2.3423,2.3411,2.3412,2.3419,2.3435,2.3467,2.3479,2.3491,2.3502,2.3517,2.3518,2.3466,2.3464,2.3407,2.338,2.3352,0,0,0,2.3396,2.3354,2.3411,2.337,2.3435,2.3428,2.3479,2.3476,2.3481,2.3517,2.3465,2.3463,2.3408,2.3383,2.3355,2.3323,2.3307,0,0,2.3325,2.3344,2.3323,2.3375,2.3351,2.3425,2.3393,2.3426,2.3455,2.3459,2.3458,2.3403,2.338,2.3353,2.3228,2.3215,0,0,0,2.329,2.3274,2.3275,2.3279,2.3306,2.3326,2.3369,2.3382,2.3387,2.3451,2.3387,2.3374,2.336,2.3346,2.3334,2.3324,2.3456,2.3456,2.3456,2.3143,2.3186,2.3155,2.3202,2.3206,2.3253,2.3261,2.3287,2.3326,2.3311,2.3311,2.3231,2.3213,2.3205,2.3194,2.3299,2.3298,2.3298,2.3298,2.3044,2.3028,2.3087,2.3076,2.3122,2.3115,2.316,2.3189,2.3189,2.3233,2.3222,2.3265,2.3189,2.3182,2.3294,2.3295,2.3295,2.3296,2.3296,2.2951,2.2952,2.2971,2.2985,2.2991,2.3042,2.3041,2.3083,2.3122,2.3111,2.3118,2.3119,2.3125,2.3112,2.3112,2.3111,2.3111,2.3111,2.3111,2.2847,2.2871,2.2865,2.2893,2.2904,2.2923,2.2973,2.2985,2.3009,2.304,2.304,2.3082,2.3174,2.3196,2.3107,2.3107,2.3108,2.3108,2.3109,2.2728,2.2763,2.2753,2.2764,2.2803,2.2808,2.2863,2.2885,2.2901,2.29,2.2946,2.3008,2.3029,2.3038,2.3057,2.2936,2.2936,2.2936,2.2936,2.2649,2.2666,2.2667,2.2683,2.2703,2.2754,2.2743,2.2784,2.2831,2.2844,2.2869,2.2897,2.2905,2.2922,2.2934,2.2952,2.2807,2.2807,2.2807,2.2579,2.26,2.2582,2.263,2.2665,2.2694,2.2686,2.2703,2.2764,2.2803,2.2856,2.2861,2.2908,2.2921,2.2957,2.2974,2.3008,0,0]},{"header":{"parameterUnit":"m.s-1","parameterCategory":1,"la1":30.2992,"la2":30.254,"lo1":-89.0895,"lo2":-89.0443,"dy":0.0025,"dx":0.0025,"nx":19,"ny":19,"refTime":"2026-03-25T21:00:00:Z","depth":0,"parameterNumber":3,"parameterNumberName":"V-component_of_WINDS"},"data":[0,0,0,0.1218,0.1217,0.1189,0.1189,0.1143,0.1142,0,0,0,0,0,0,0,0,0,0,0,0.1222,0.1221,0.1218,0.1217,0.1189,0.1189,0.1143,0.1142,0,0,0,0,0,0,0,0,0,0,0,0.1222,0.1221,0.1221,0.1217,0.1189,0.1189,0.1143,0.1167,0,0,0,0,0,0,0,0,0,0,0.1196,0.1196,0.1222,0.1221,0.1217,0.1189,0.1189,0.1169,0.1166,0.1152,0,0.114,0,0.114,0.1139,0.1138,0,0,0,0.122,0.1199,0.1195,0.1221,0.1216,0.1189,0.1202,0.1167,0.1164,0.1148,0.1139,0.1137,0.1139,0.1138,0.1138,0.1047,0.1047,0,0,0.1221,0.1214,0.1197,0.1193,0.1198,0.1203,0.1201,0.1165,0.1155,0.1139,0.1137,0.1139,0.1138,0.1138,0.1048,0.1047,0,0,0,0.1224,0.1215,0.1213,0.1194,0.119,0.1202,0.12,0.1156,0.1156,0.1136,0.1138,0.1138,0.1137,0.1049,0.1048,0.1011,0,0,0,0.1225,0.1217,0.1213,0.1208,0.1191,0.1173,0.1192,0.1159,0.1155,0.1138,0.1138,0.1136,0.1049,0.1048,0.1014,0.0995,0,0,0,0.1225,0.1217,0.1211,0.1208,0.1196,0.1174,0.1172,0.1158,0.1156,0.1138,0.1136,0.105,0.1048,0.1016,0.0999,0.0967,0,0,0,0.1223,0.1181,0.1211,0.1164,0.1196,0.1153,0.1172,0.114,0.1121,0.1137,0.1049,0.1048,0.1017,0.1001,0.0969,0.0937,0.0924,0,0,0.1166,0.1174,0.1147,0.1173,0.1122,0.1157,0.1101,0.109,0.1095,0.1063,0.106,0.1013,0.0999,0.0967,0.0856,0.0845,0,0,0,0.1127,0.1107,0.1095,0.1077,0.1067,0.1057,0.1056,0.1051,0.1023,0.1078,0.0994,0.0986,0.0968,0.0953,0.0944,0.0927,0.1041,0.1041,0.1042,0.1036,0.1044,0.0999,0.1002,0.0983,0.0981,0.0965,0.0958,0.0973,0.0953,0.0943,0.0874,0.0857,0.085,0.0832,0.0929,0.0928,0.0928,0.0928,0.0952,0.0924,0.0941,0.0904,0.0911,0.0879,0.0874,0.0884,0.0854,0.0884,0.0868,0.0898,0.0838,0.0823,0.0926,0.0926,0.0926,0.0927,0.0927,0.0891,0.0879,0.0874,0.0845,0.0821,0.0826,0.0795,0.0803,0.0811,0.0795,0.0783,0.0784,0.0783,0.0789,0.0789,0.0789,0.0789,0.0788,0.0788,0.083,0.0825,0.0799,0.0783,0.077,0.0754,0.0748,0.0735,0.0723,0.0731,0.0731,0.0745,0.0832,0.0852,0.0785,0.0785,0.0786,0.0786,0.0786,0.0738,0.0759,0.0718,0.0705,0.0685,0.0658,0.0669,0.0641,0.0631,0.0615,0.0632,0.0696,0.0704,0.0712,0.0728,0.0633,0.0633,0.0633,0.0633,0.0685,0.069,0.0648,0.0626,0.0605,0.0609,0.0558,0.0552,0.055,0.0543,0.0559,0.0582,0.0589,0.0593,0.0603,0.0619,0.0497,0.0497,0.0497,0.0627,0.063,0.0587,0.0585,0.0569,0.0554,0.0505,0.0476,0.0478,0.0492,0.0538,0.0543,0.0581,0.0594,0.0608,0.0623,0.0651,0,0]}]]